Lapse_Rate
3.4 3.3 3.3 3.1 3.0 2.9 3.1 3.2 3.2 3.4 4.0 4.4 4.7 5.0 5.4 5.5 5.8 6.1 6.1 6.3 6.5 6.6 6.5 6.5 6.5 6.8 7.9 8.1 8.0 7.8 6.3 6.6 8.0 7.9 8.4 8.2 7.7 7.4 6.5 6.8 7.1 6.5 6.7 7.1 6.9 6.1 7.1
3.4 3.4 3.2 3.0 2.9 3.0 3.2 3.2 2.8 3.0 3.5 4.0 4.2 4.3 4.7 5.0 5.5 5.9 6.1 6.4 6.5 6.7 6.6 6.4 6.7 6.9 8.4 6.8 8.2 7.3 6.7 7.7 7.6 8.0 8.0 8.2 7.9 8.0 7.2 6.9 6.7 7.1 6.9 7.0 7.1 7.0 7.0
3.0 3.2 3.1 3.1 2.9 2.7 2.9 3.1 2.9 2.7 3.1 3.5 3.7 3.8 4.1 4.5 5.0 5.7 6.3 6.3 6.5 6.3 6.2 6.7 6.6 8.1 8.2 7.8 8.1 7.8 7.2 7.5 7.6 8.1 8.0 7.8 7.9 7.8 7.7 6.6 7.5 7.2 6.5 6.5 6.8 6.9 6.6
2.9 2.9 3.1 3.1 3.3 3.2 2.8 2.9 2.9 2.8 2.6 2.8 3.2 3.3 3.5 4.0 4.3 4.9 5.7 6.1 6.2 6.6 6.8 6.4 6.8 7.9 7.6 8.0 7.6 7.9 7.9 7.1 7.2 7.7 8.0 7.5 7.5 7.8 7.5 7.7 7.0 6.5 6.5 6.5 6.5 6.7 6.7
2.7 2.7 2.7 2.8 2.8 3.1 2.9 2.7 2.5 2.4 2.2 2.4 2.6 2.9 3.1 3.4 3.7 4.4 5.1 5.6 6.2 6.6 6.7 6.2 7.1 7.2 7.2 7.6 7.8 8.0 8.3 7.9 8.1 7.9 7.8 7.7 8.0 7.5 7.4 6.5 6.5 6.5 6.5 6.5 6.5 6.8 6.5
2.5 2.4 2.4 2.4 2.5 2.6 2.7 2.6 2.2 2.1 2.0 2.0 2.2 2.4 2.7 2.8 3.2 3.9 4.5 5.2 6.1 6.5 7.2 7.1 6.5 6.7 7.8 7.7 7.8 7.4 7.9 8.1 8.1 8.0 7.8 7.7 7.5 6.5 6.5 6.5 6.5 6.5 6.5 6.5 6.5 6.5 6.5
2.3 2.2 2.2 2.1 2.2 2.1 2.2 2.2 2.0 1.9 1.8 1.8 2.0 2.0 2.3 2.6 3.2 3.5 4.4 6.6 8.0 7.7 6.8 7.6 7.5 7.3 7.4 7.8 7.5 7.5 7.9 7.9 8.3 7.7 6.5 7.1 6.5 6.5 6.5 6.5 6.5 6.5 6.5 6.5 6.5 6.5 6.5
2.6 2.4 2.0 2.0 2.2 2.2 1.7 1.5 1.7 1.6 1.7 1.7 1.7 1.9 2.3 2.5 3.1 3.4 4.5 6.5 6.9 6.5 7.0 6.8 6.7 6.7 6.9 7.6 7.4 7.5 7.6 7.3 7.1 6.5 6.7 6.5 6.5 6.5 6.5 6.5 6.5 6.5 6.5 6.5 6.5 6.5 6.5
2.5 2.5 2.2 1.7 1.8 1.9 1.7 1.1 1.1 1.6 1.5 1.4 1.8 2.0 2.6 2.9 3.3 4.3 5.3 5.4 4.9 6.7 7.0 7.2 7.2 7.3 7.8 7.6 7.3 7.4 7.4 7.5 6.7 6.5 6.5 6.5 6.5 6.6 6.5 6.5 6.5 6.5 6.5 6.5 6.5 6.5 6.5
2.0 2.0 1.8 1.3 1.1 1.0 1.1 1.5 1.1 1.3 1.3 1.5 1.7 2.2 3.1 3.3 4.6 4.4 5.6 4.1 4.6 6.1 6.5 6.5 6.8 7.3 7.4 7.2 6.9 7.3 7.3 7.4 6.7 6.5 6.5 6.5 6.6 6.5 6.5 6.5 6.5 6.5 6.5 6.5 6.5 6.5 6.5
1.9 1.8 1.4 1.7 1.1 1.2 1.0 1.0 1.2 1.1 1.0 1.2 1.9 2.5 3.2 3.9 5.6 6.0 4.8 4.1 4.8 6.7 6.5 6.5 6.8 7.6 6.9 7.1 7.2 6.9 6.0 7.3 6.5 6.5 6.5 6.5 6.5 6.5 6.5 6.5 6.5 6.5 6.5 6.5 6.5 6.5 6.5
1.7 1.7 1.6 1.3 1.5 1.2 1.0 0.9 0.8 1.0 1.0 0.9 1.8 2.4 2.9 4.2 4.7 4.2 3.3 4.2 6.3 6.5 6.5 6.5 6.8 6.6 6.6 7.0 6.9 6.9 7.2 6.7 7.1 6.5 6.5 6.5 7.1 6.6 6.5 6.5 6.5 6.5 6.5 6.5 6.5 6.5 6.5
1.5 1.8 1.5 1.1 1.0 0.9 0.8 0.7 0.5 0.5 0.9 0.7 1.7 2.5 3.0 3.4 5.9 3.0 3.5 6.7 6.5 6.5 6.5 6.5 6.5 6.5 6.5 6.5 6.5 6.5 6.5 6.5 6.5 6.5 6.5 6.5 6.5 6.6 6.8 6.5 6.5 6.5 6.5 6.5 6.5 6.5 6.5
1.6 1.6 1.3 1.0 1.0 0.9 0.8 0.5 0.4 0.0 0.3 1.0 1.5 2.3 1.6 2.3 2.2 3.1 5.6 6.6 6.5 6.5 6.5 6.5 6.5 6.5 6.5 6.5 6.5 6.5 6.5 6.5 6.5 6.5 6.5 6.5 6.5 6.5 6.5 6.5 6.5 6.5 6.5 6.5 6.5 6.5 6.5
1.5 1.4 1.2 1.1 1.0 0.6 0.5 0.4 0.3 0.0 -0.1 0.9 1.0 3.0 3.9 2.9 2.4 4.0 7.5 6.5 6.5 6.5 6.5 6.5 6.5 6.5 6.5 6.5 6.5 6.5 6.5 6.5 6.5 6.5 6.5 6.5 6.5 6.5 6.5 6.5 6.5 6.5 6.5 6.5 6.5 6.5 6.5
1.6 1.4 1.3 1.0 0.6 0.3 0.3 0.2 0.1 -0.2 -0.1 0.9 3.9 4.5 4.4 1.9 2.3 5.5 6.7 6.5 6.5 6.7 6.6 6.5 6.5 6.5 6.5 6.5 6.5 6.5 6.5 6.5 6.5 6.6 6.8 6.5 6.5 6.5 6.5 6.7 6.6 6.5 6.5 6.5 6.5 6.5 6.5
1.5 1.3 1.4 1.0 0.8 0.3 0.0 0.2 0.2 -0.1 -0.1 0.7 4.4 6.6 3.1 1.0 3.1 7.3 6.5 6.5 6.5 7.0 7.0 6.5 6.5 6.5 6.5 6.5 6.5 6.5 6.5 6.5 6.5 6.5 6.8 6.5 6.5 6.5 6.5 6.5 6.5 6.5 6.5 6.5 6.5 6.5 6.5
1.5 1.2 0.9 0.6 0.4 0.5 0.3 0.0 0.1 0.0 -0.3 1.4 3.7 6.6 2.3 2.5 6.8 7.0 6.5 6.5 6.4 6.7 7.0 6.7 6.6 6.5 6.5 6.5 6.5 6.5 6.5 6.5 7.1 6.8 6.5 6.5 6.5 6.5 6.5 6.5 6.5 6.5 6.5 6.5 6.5 6.5 6.5
1.7 1.3 1.0 0.5 0.2 0.1 0.1 -0.8 -0.2 -0.2 -0.7 1.5 5.1 5.3 1.9 2.7 6.5 6.5 6.6 6.5 6.7 6.5 6.5 6.5 6.5 6.5 6.5 6.5 6.5 6.5 6.5 6.9 7.1 6.6 6.5 6.5 6.5 6.5 6.5 6.5 6.5 6.5 6.5 6.5 6.5 6.5 6.5
2.4 1.6 1.2 0.6 0.3 -0.1 -0.1 -1.1 -0.5 -0.4 -0.6 0.8 4.4 6.5 5.9 4.6 4.6 6.6 6.5 6.5 6.5 6.1 6.7 6.8 6.6 6.7 6.5 6.5 6.5 6.5 6.5 6.6 7.0 6.9 6.5 6.7 6.5 6.5 6.5 6.5 6.5 6.5 6.5 6.5 6.5 6.5 6.5
2.3 2.0 1.2 0.7 0.3 0.2 0.1 -0.6 -0.3 -0.4 -0.8 1.2 3.1 6.2 4.2 6.5 6.7 6.7 6.6 6.5 6.5 6.5 6.7 6.9 6.5 6.5 6.5 6.5 6.5 6.5 6.5 6.5 6.7 6.8 6.8 6.5 6.5 6.5 6.5 6.5 6.5 6.5 6.5 6.5 6.5 6.5 6.5
3.0 2.6 1.9 1.1 0.7 -0.0 -0.1 -0.4 -0.2 -0.2 -0.4 2.1 5.5 6.0 4.3 6.9 6.6 6.6 6.5 6.5 6.5 6.5 6.5 6.5 6.5 6.5 6.5 6.5 6.5 6.5 6.5 6.5 6.5 6.6 6.5 6.5 6.5 6.5 6.5 6.5 6.5 6.5 6.5 6.5 6.5 6.5 6.5
3.7 3.0 2.3 1.8 1.2 0.9 0.0 -0.4 0.3 0.4 0.7 3.2 -0.0 1.0 4.8 6.3 6.7 6.5 6.5 6.5 6.5 6.6 6.5 6.7 6.6 6.5 6.5 6.5 6.9 7.0 7.2 7.1 6.8 6.5 6.5 6.5 6.5 6.5 6.5 6.5 6.5 6.5 6.5 6.5 6.5 6.5 6.5
6.2 5.0 4.3 2.4 1.8 1.4 0.8 0.2 -0.0 0.6 0.6 1.7 0.9 2.8 6.3 6.5 6.5 6.5 6.6 6.7 6.5 6.6 6.5 6.7 6.6 6.6 6.3 5.4 5.7 6.3 7.1 7.0 7.0 6.7 6.9 6.5 6.5 6.5 6.5 6.5 6.5 6.5 6.5 6.5 6.5 6.5 6.5
7.3 6.2 5.3 4.4 2.8 2.5 2.2 1.5 0.7 0.9 1.0 2.0 0.3 3.4 5.4 6.5 6.8 6.7 6.7 6.7 6.9 6.8 6.7 6.7 6.5 6.1 5.4 6.2 6.5 6.5 6.5 6.5 6.5 6.5 6.5 6.6 6.5 6.5 6.5 6.5 6.5 6.5 6.5 6.5 6.5 6.5 6.5
8.5 8.1 7.6 6.8 5.5 3.8 3.4 2.8 2.4 1.5 1.5 1.7 1.6 1.5 4.3 6.8 6.5 5.8 6.7 6.9 6.5 6.5 6.5 6.8 5.3 5.0 6.0 6.7 6.5 6.5 6.5 6.5 6.5 6.5 6.7 6.5 6.5 6.5 6.5 6.5 6.5 6.5 6.5 7.0 6.7 6.5 6.7
8.2 8.1 8.3 7.9 7.1 5.7 4.3 3.9 3.5 3.3 2.4 2.1 2.5 0.9 4.4 6.3 4.7 4.6 6.8 6.6 6.3 6.9 6.5 6.9 6.9 6.6 5.6 6.5 6.5 6.5 6.5 6.5 6.5 6.5 6.5 6.5 6.5 6.5 6.5 6.5 6.5 6.5 6.7 6.7 6.5 6.5 6.9
7.8 8.3 8.0 8.0 7.7 6.9 5.9 4.9 4.2 3.9 3.7 3.1 3.1 1.4 4.5 5.6 4.8 3.2 4.3 4.9 5.2 6.7 6.5 6.9 6.5 6.6 6.7 6.5 6.5 6.5 6.5 6.5 6.5 6.5 6.5 6.5 6.5 6.5 6.5 6.5 6.5 6.9 6.6 6.5 6.7 6.4 6.5
6.6 7.0 7.1 7.4 7.7 6.9 6.4 5.5 5.0 4.7 4.5 3.6 4.3 2.2 2.6 5.8 5.8 3.0 3.8 3.4 5.1 5.4 6.0 4.9 6.9 6.8 7.0 6.5 6.5 6.5 6.5 6.5 6.5 6.5 6.5 6.5 6.5 6.5 6.5 6.5 6.8 6.8 7.0 5.9 6.5 7.0 6.1
Wind_Speed
12 13 13 13 13 12 11 10 9 8 8 8 7 7 9 10 12 10 14 13 14 15 7 5 5 10 6 5 4 5 12 7 16 7 7 5 8 6 10 9 8 6 7 5 4 5 3
13 13 13 13 13 14 13 11 10 9 8 7 7 6 6 7 6 7 9 11 11 13 12 9 6 3 2 5 4 6 7 11 12 8 7 5 3 2 5 8 14 8 4 5 4 5 3
13 14 14 14 14 14 14 14 12 10 8 7 6 6 5 5 6 6 6 7 10 9 12 8 6 1 2 0 2 4 1 4 7 5 6 3 1 3 1 4 3 4 7 5 5 4 3
12 13 15 15 16 16 16 15 14 11 8 7 7 5 4 4 5 8 7 5 4 6 5 5 2 1 2 1 4 2 5 3 3 2 3 1 3 1 1 1 4 7 6 9 6 7 3
12 14 15 16 17 17 18 17 15 11 8 7 7 6 4 4 4 5 7 9 9 9 8 5 2 1 1 2 2 1 1 4 5 2 2 1 2 1 3 5 9 7 12 16 7 3 4
12 14 15 16 17 18 18 19 16 13 8 7 7 6 5 5 3 3 5 6 4 4 4 3 1 3 1 2 0 3 2 6 2 5 5 3 2 4 4 8 14 18 9 15 11 7 4
13 14 15 16 17 19 19 19 19 15 10 7 7 6 5 5 2 1 2 1 3 3 3 3 2 1 2 1 2 2 2 4 4 6 6 3 6 11 10 10 7 10 13 15 4 2 5
15 15 15 16 17 18 18 20 18 16 11 10 7 5 4 4 2 3 2 2 2 1 3 3 4 4 4 2 3 2 2 2 6 8 5 5 10 6 2 5 6 10 14 10 3 1 3
15 16 17 18 18 18 18 18 18 16 11 10 11 6 4 3 5 2 2 3 2 2 3 2 2 2 0 3 2 5 3 1 6 7 6 8 4 2 3 6 9 6 15 9 4 5 2
12 15 18 20 20 19 19 19 18 16 10 11 9 6 2 5 4 1 1 1 2 2 1 5 1 1 2 1 3 1 2 1 2 5 2 2 1 3 3 7 5 9 2 7 10 10 5
12 14 16 19 19 19 18 19 19 15 12 9 6 3 2 1 2 1 2 1 2 2 2 6 1 2 2 2 4 2 1 2 2 4 2 2 1 4 4 1 2 3 2 5 3 3 4
12 13 15 15 17 19 20 19 19 17 12 9 2 0 6 2 1 2 2 2 2 2 3 2 2 1 1 1 1 1 1 4 2 3 5 2 0 2 3 2 1 8 7 5 3 1 3
12 14 16 17 17 19 20 21 20 17 14 5 1 4 2 1 1 1 1 2 1 3 2 1 2 2 1 1 2 1 1 2 1 2 1 2 2 2 2 2 2 2 4 3 2 3 2
12 13 15 17 19 21 22 22 22 20 14 4 4 3 4 3 1 2 2 2 5 0 1 2 3 2 2 2 1 1 3 4 2 1 2 4 3 2 2 3 2 4 2 2 5 5 4
11 13 15 17 18 20 21 23 22 21 14 1 6 1 1 2 0 1 2 3 2 1 2 3 2 3 3 3 2 3 3 2 0 2 3 3 1 1 1 2 3 4 5 2 4 1 2
10 13 16 18 18 19 21 23 24 23 15 3 2 2 2 3 2 1 1 2 1 2 1 2 2 1 2 2 3 3 6 3 3 1 3 1 1 0 1 2 2 2 2 2 1 5 4
9 11 14 15 18 19 20 21 23 24 15 2 1 2 2 1 1 1 2 2 2 3 2 2 2 2 1 1 3 2 1 2 1 3 1 4 3 2 2 5 4 3 3 1 2 2 2
8 10 12 14 15 18 19 19 21 22 15 1 0 1 2 2 0 1 1 0 1 2 1 2 2 1 2 2 2 2 2 2 1 1 2 3 2 3 3 2 1 2 2 3 4 4 1
8 9 11 13 15 17 19 18 20 20 12 1 0 1 1 1 2 1 1 1 1 1 2 2 2 1 2 1 3 1 1 1 1 3 3 3 3 2 3 3 2 5 5 2 2 1 5
8 8 10 12 14 16 17 19 20 19 14 1 1 0 1 2 1 1 1 1 1 2 1 1 1 1 2 1 3 2 1 1 1 1 0 3 2 4 2 2 2 4 6 8 7 4 5
7 7 8 10 12 15 17 16 20 21 13 1 3 1 2 2 1 1 1 1 1 1 2 2 1 2 2 2 1 2 2 1 2 1 0 2 4 3 6 5 4 5 6 12 12 11 7
9 7 7 7 10 12 15 17 21 21 9 2 1 1 1 2 0 2 0 2 1 1 1 1 2 1 2 3 3 3 4 4 2 3 2 1 2 1 3 2 5 7 11 12 15 13 15
10 9 7 6 6 8 10 12 17 20 7 2 1 0 1 2 1 1 1 2 2 1 2 2 2 2 3 4 2 3 4 2 1 3 6 3 3 2 3 1 4 9 15 16 7 6 9
13 12 10 7 7 7 9 10 12 14 9 1 1 1 1 2 2 3 3 3 4 4 2 2 4 3 1 2 1 1 1 2 3 1 2 4 3 2 2 2 5 3 2 1 11 4 11
15 14 14 11 8 7 8 8 8 10 9 1 1 2 2 3 2 4 6 5 2 2 3 3 3 2 2 2 1 4 2 2 2 2 3 2 2 2 3 4 7 4 4 5 7 4 4
20 18 16 15 13 10 8 7 7 5 6 1 0 2 2 2 5 1 2 4 3 3 2 3 1 0 1 0 2 3 3 2 2 2 2 1 1 4 2 4 4 3 2 1 2 4 3
23 22 21 19 17 14 11 9 7 6 2 1 1 2 2 2 3 6 5 4 5 2 1 1 4 4 0 3 4 5 4 2 4 4 4 3 3 10 8 5 7 2 4 1 3 3 4
24 25 23 22 21 19 16 13 10 7 5 3 1 5 2 2 4 6 5 5 3 3 3 4 3 2 3 5 4 3 4 4 2 3 5 7 7 5 4 5 9 4 4 5 4 2 4
25 26 25 25 23 23 21 18 14 12 9 5 2 3 3 3 3 2 4 3 3 3 4 4 1 3 5 4 3 2 4 3 4 3 1 4 5 3 8 3 1 2 1 2 3 4 5
Wind_Direction
20 17 18 17 14 7 357 354 351 343 336 331 341 349 357 2 10 24 21 27 29 46 81 67 134 144 156 211 260 337 320 250 177 172 180 180 181 179 197 199 178 226 181 165 145 179 211
12 11 11 10 7 5 359 354 343 333 335 329 334 341 350 348 2 19 27 23 30 40 52 64 115 123 188 218 356 331 348 151 163 174 166 184 190 190 231 204 200 197 184 151 169 159 152
13 9 7 4 4 3 358 353 347 333 327 326 328 334 343 328 318 331 2 17 23 21 35 33 87 158 212 111 340 344 84 167 167 174 168 181 97 222 7 172 215 170 164 162 163 156 154
17 15 9 5 1 358 356 355 346 338 324 319 322 324 332 312 313 311 293 312 338 349 21 13 71 274 256 266 311 259 114 84 123 121 89 86 215 340 266 347 166 187 211 182 150 164 146
18 15 11 6 3 360 356 352 349 342 331 314 313 316 318 300 300 309 307 286 281 286 289 323 138 300 19 325 261 66 163 149 140 142 141 79 213 106 154 199 176 195 197 209 158 173 150
18 15 11 7 4 2 359 355 347 343 333 314 309 313 305 288 290 309 308 295 291 290 261 228 173 214 21 31 92 110 92 148 153 156 139 172 182 182 174 207 192 190 196 200 190 167 194
11 12 14 7 5 2 360 357 352 347 340 327 318 312 298 284 277 27 9 133 211 197 242 308 16 314 306 40 176 96 125 160 143 191 170 163 191 195 193 209 301 198 206 189 163 56 215
3 7 7 7 4 3 2 358 354 353 345 331 320 304 286 275 228 131 119 62 44 14 310 135 276 278 240 225 125 98 187 197 175 166 146 173 204 192 125 210 236 202 193 183 114 81 229
2 2 359 360 359 1 1 0 358 359 350 336 321 309 288 244 175 136 110 94 303 297 291 353 256 260 328 205 110 153 187 224 185 167 180 187 148 154 140 179 197 203 206 178 184 147 90
9 2 358 356 357 359 0 1 2 1 358 342 324 315 303 154 223 149 137 39 63 289 167 22 53 13 146 261 82 23 194 261 144 182 176 190 334 171 151 203 240 190 153 148 140 172 204
7 5 4 356 356 357 360 1 2 3 355 341 326 327 135 102 94 226 69 336 55 237 58 341 8 350 14 341 127 104 5 201 180 129 200 102 177 132 185 223 297 103 133 134 142 114 172
5 3 360 2 352 352 352 359 3 356 356 340 289 66 149 132 122 11 315 159 209 222 57 4 311 3 181 46 78 93 254 66 99 111 71 83 304 44 39 5 295 142 118 89 83 113 214
4 1 357 355 354 352 352 353 359 359 350 344 239 146 119 53 44 126 301 236 281 48 359 11 13 18 108 117 128 231 164 130 234 128 78 155 52 71 12 151 149 255 171 126 147 197 224
359 2 0 357 352 352 352 353 353 357 354 342 164 133 38 71 116 160 221 244 59 11 279 352 303 245 186 170 100 122 160 174 161 267 160 178 186 119 17 302 262 190 268 230 171 188 170
358 360 0 359 356 353 350 350 350 354 350 26 150 67 85 31 44 277 249 36 79 207 322 315 262 273 163 189 222 171 189 243 312 220 285 179 168 44 351 314 293 152 219 29 102 28 197
359 360 358 357 356 354 352 350 349 353 350 221 173 147 62 353 315 228 192 106 165 205 286 272 290 268 256 197 231 225 180 144 170 221 279 109 228 103 1 261 81 281 60 189 239 172 211
353 1 357 357 352 353 355 353 354 353 359 164 301 233 87 34 219 276 70 142 211 221 210 187 317 278 268 245 300 228 148 127 252 160 162 146 246 134 232 206 201 162 202 258 311 314 241
351 357 355 354 354 351 355 356 357 359 354 51 179 286 40 278 176 64 56 282 308 235 207 199 199 264 308 286 222 234 284 324 74 151 192 173 221 200 188 86 321 298 290 257 255 188 45
342 347 351 352 353 352 354 354 355 358 3 306 199 341 120 168 339 91 180 223 213 245 233 199 179 207 144 317 292 254 248 113 210 212 220 172 213 191 155 181 176 228 192 181 108 337 212
321 334 339 351 352 355 358 351 347 357 359 259 179 240 78 66 56 316 209 188 233 172 249 283 288 203 197 196 169 310 289 164 311 260 151 220 248 265 288 54 89 199 202 208 214 203 209
293 310 330 344 356 354 353 352 346 350 355 226 10 73 97 339 53 8 309 321 274 212 201 184 248 272 243 198 216 234 201 238 190 64 171 273 262 206 262 230 207 227 202 195 206 222 226
280 291 315 335 350 358 353 347 346 351 1 80 344 199 164 95 12 288 221 218 261 305 251 210 226 195 222 278 284 228 194 214 215 155 202 213 241 173 262 193 236 262 245 225 225 236 250
272 268 284 307 335 342 349 353 348 352 8 70 92 337 239 124 157 225 236 198 219 179 183 238 274 284 251 266 236 299 286 338 263 211 188 195 206 218 249 235 263 261 235 213 197 210 222
265 265 266 275 299 320 337 345 357 1 18 99 150 139 250 245 219 210 193 213 227 218 238 198 178 187 150 128 129 129 187 224 201 306 307 182 194 202 284 261 240 47 64 279 213 221 213
266 262 257 257 265 285 310 326 348 358 359 5 156 190 174 261 251 245 217 216 210 221 236 243 232 347 159 123 246 302 230 219 175 44 221 268 232 249 262 226 314 233 181 174 196 184 206
259 259 260 254 252 257 272 296 313 349 360 24 254 310 213 174 231 156 181 189 223 216 212 193 115 166 317 242 180 204 253 324 236 163 60 126 289 243 162 244 262 50 79 104 256 214 143
251 256 256 253 244 246 246 257 271 293 337 138 252 183 285 233 209 168 205 204 158 179 229 162 160 170 289 199 217 211 230 171 226 207 170 167 193 223 228 255 282 173 132 126 214 101 134
244 245 244 248 241 235 235 238 237 247 258 179 201 178 236 260 277 202 199 170 145 206 203 137 155 178 147 207 223 217 231 203 230 159 185 187 177 196 197 224 255 147 129 206 117 139 148
242 244 245 242 238 226 224 224 227 225 226 188 252 162 176 230 287 269 267 278 249 202 168 189 302 167 190 188 214 188 210 200 228 245 184 234 219 198 213 232 88 165 344 125 176 147 176